Main page
METAR-TAF:

METAR-TAF

Airports :

Jask, Iran

latitude: 26-38N, longitude: 057-46E, elevation: 3 m

Current weather observation

The report was made 52 minutes ago, at 04:00 UTC
Wind 6 kt from the North/Northwest
Temperature 18°C
Humidity 77%
Pressure 1017 hPa
Visibility: 6000 m
Scattered clouds at a height of 2000 ft

METAR: OIZJ 200400Z 33006KT 6000 SCT020 18/14 Q1017

Time: 08:22 (04:52 UTC)


TAF: missing

Weather observations and forecasts of more than 4000 airports (METAR and TAF reports).

The available stations are represented by yellow and red dots on the map.

Hover mouse over dot to see the name of the station.

Then click to see weather observations and forecasts.

To change the map : click on the green buttons with a black cross to zoom in, on the green button with a dash to zoom out, or on the green arrows for adjacent maps.


METAR-TAF: